Time,TemperatureF,DewpointF,PressureIn,WindDirection,WindDirectionDegrees,WindSpeedMPH,WindSpeedGustMPH,Humidity,HourlyPrecipIn,Conditions,Clouds,dailyrainin,SoftwareType,DateUTC
2013-07-28 00:03:00,67.8,67.0,29.99,East,98,0.0,1.0,97,0.00,,,0.00,weatherlink.com 1.10,2013-07-28 04:03:00,
2013-07-28 00:18:00,67.9,67.0,29.99,ENE,75,0.0,1.0,97,0.00,,,0.00,weatherlink.com 1.10,2013-07-28 04:18:00,
2013-07-28 00:33:00,68.5,68.0,29.99,ENE,67,2.0,2.0,98,0.00,,,0.00,weatherlink.com 1.10,2013-07-28 04:33:00,
2013-07-28 00:48:00,68.7,68.0,29.99,ENE,65,1.0,2.0,97,0.00,,,0.00,weatherlink.com 1.10,2013-07-28 04:48:00,
2013-07-28 01:03:00,68.8,68.0,29.99,NE,53,3.0,4.0,97,0.00,,,0.00,weatherlink.com 1.10,2013-07-28 05:03:00,
2013-07-28 01:18:00,68.8,68.0,29.99,NE,53,3.0,3.0,97,0.00,,,0.00,weatherlink.com 1.10,2013-07-28 05:18:00,
2013-07-28 01:33:00,68.8,68.0,29.98,NE,49,3.0,3.0,97,0.00,,,0.00,weatherlink.com 1.10,2013-07-28 05:33:00,
2013-07-28 01:48:00,68.7,68.0,29.98,NE,37,2.0,4.0,97,0.00,,,0.00,weatherlink.com 1.10,2013-07-28 05:48:00,
2013-07-28 02:04:00,68.8,68.0,29.97,NE,46,6.0,6.0,97,0.00,,,0.00,weatherlink.com 1.10,2013-07-28 06:04:00,
2013-07-28 02:19:00,68.5,68.0,29.98,ENE,61,2.0,5.0,97,0.00,,,0.00,weatherlink.com 1.10,2013-07-28 06:19:00,
2013-07-28 02:34:00,68.5,68.0,29.97,NE,49,5.0,5.0,97,0.00,,,0.00,weatherlink.com 1.10,2013-07-28 06:34:00,
2013-07-28 02:49:00,68.4,68.0,29.96,NE,51,6.0,6.0,97,0.00,,,0.00,weatherlink.com 1.10,2013-07-28 06:49:00,
2013-07-28 03:04:00,68.5,68.0,29.96,NE,54,5.0,5.0,98,0.00,,,0.00,weatherlink.com 1.10,2013-07-28 07:04:00,
2013-07-28 03:19:00,68.5,68.0,29.95,ENE,58,4.0,7.0,98,0.00,,,0.00,weatherlink.com 1.10,2013-07-28 07:19:00,
2013-07-28 03:34:00,68.4,68.0,29.95,ENE,77,2.0,4.0,98,0.00,,,0.00,weatherlink.com 1.10,2013-07-28 07:34:00,
2013-07-28 03:49:00,68.3,68.0,29.95,NE,46,4.0,7.0,99,0.00,,,0.00,weatherlink.com 1.10,2013-07-28 07:49:00,
2013-07-28 04:04:00,67.9,68.0,29.95,ENE,62,3.0,7.0,99,0.00,,,0.00,weatherlink.com 1.10,2013-07-28 08:04:00,
2013-07-28 04:19:00,67.6,67.0,29.94,ENE,63,2.0,6.0,99,0.00,,,0.00,weatherlink.com 1.10,2013-07-28 08:19:00,
2013-07-28 04:34:00,67.4,67.0,29.94,NE,39,4.0,7.0,99,0.02,,,0.02,weatherlink.com 1.10,2013-07-28 08:34:00,
2013-07-28 04:49:00,67.1,67.0,29.93,NNE,27,3.0,6.0,99,0.03,,,0.03,weatherlink.com 1.10,2013-07-28 08:49:00,
2013-07-28 05:04:00,67.6,67.0,29.94,East,90,1.0,7.0,99,0.05,,,0.05,weatherlink.com 1.10,2013-07-28 09:04:00,
2013-07-28 05:19:00,67.5,67.0,29.92,NE,54,5.0,8.0,99,0.09,,,0.09,weatherlink.com 1.10,2013-07-28 09:19:00,
2013-07-28 05:34:00,67.9,68.0,29.92,NE,49,6.0,6.0,99,0.10,,,0.12,weatherlink.com 1.10,2013-07-28 09:34:00,
2013-07-28 05:49:00,67.8,68.0,29.93,East,81,1.0,5.0,99,0.11,,,0.14,weatherlink.com 1.10,2013-07-28 09:49:00,
2013-07-28 06:04:00,68.2,68.0,29.93,NNW,329,0.0,4.0,99,0.11,,,0.16,weatherlink.com 1.10,2013-07-28 10:04:00,
2013-07-28 06:19:00,68.6,69.0,29.93,WNW,283,1.0,2.0,100,0.12,,,0.21,weatherlink.com 1.10,2013-07-28 10:19:00,
2013-07-28 06:34:00,69.0,69.0,29.94,WSW,250,2.0,4.0,100,0.12,,,0.24,weatherlink.com 1.10,2013-07-28 10:34:00,
2013-07-28 06:49:00,69.1,69.0,29.95,SSW,199,3.0,5.0,100,0.10,,,0.24,weatherlink.com 1.10,2013-07-28 10:49:00,
2013-07-28 07:04:00,69.2,69.0,29.95,SW,222,3.0,6.0,100,0.11,,,0.27,weatherlink.com 1.10,2013-07-28 11:04:00,
2013-07-28 07:19:00,69.2,69.0,29.95,SSE,167,1.0,4.0,99,0.07,,,0.28,weatherlink.com 1.10,2013-07-28 11:19:00,
2013-07-28 07:34:00,69.2,69.0,29.94,ESE,109,0.0,1.0,99,0.05,,,0.29,weatherlink.com 1.10,2013-07-28 11:34:00,
2013-07-28 07:49:00,69.2,69.0,29.94,ENE,71,0.0,2.0,99,0.12,,,0.36,weatherlink.com 1.10,2013-07-28 11:49:00,
2013-07-28 08:04:00,69.3,69.0,29.93,NE,54,2.0,3.0,99,0.14,,,0.41,weatherlink.com 1.10,2013-07-28 12:04:00,
2013-07-28 08:19:00,68.9,69.0,29.93,ENE,58,3.0,6.0,99,0.13,,,0.41,weatherlink.com 1.10,2013-07-28 12:19:00,
2013-07-28 08:34:00,69.0,69.0,29.92,NE,49,2.0,3.0,99,0.12,,,0.41,weatherlink.com 1.10,2013-07-28 12:34:00,
2013-07-28 08:49:00,69.2,69.0,29.93,NE,47,2.0,3.0,99,0.04,,,0.41,weatherlink.com 1.10,2013-07-28 12:49:00,
2013-07-28 09:04:00,70.1,70.0,29.93,East,80,2.0,3.0,99,0.00,,,0.41,weatherlink.com 1.10,2013-07-28 13:04:00,
2013-07-28 09:19:00,70.2,70.0,29.93,ENE,75,0.0,2.0,99,0.00,,,0.41,weatherlink.com 1.10,2013-07-28 13:19:00,
2013-07-28 09:34:00,70.6,70.0,29.93,NE,41,0.0,3.0,99,0.00,,,0.41,weatherlink.com 1.10,2013-07-28 13:34:00,
2013-07-28 09:49:00,70.7,70.0,29.93,ESE,110,2.0,4.0,98,0.00,,,0.41,weatherlink.com 1.10,2013-07-28 13:49:00,
2013-07-28 10:04:00,71.2,71.0,29.94,SSW,205,2.0,3.0,98,0.00,,,0.41,weatherlink.com 1.10,2013-07-28 14:04:00,
2013-07-28 10:19:00,71.9,71.0,29.93,South,188,0.0,2.0,97,0.00,,,0.41,weatherlink.com 1.10,2013-07-28 14:19:00,
2013-07-28 10:34:00,72.6,71.0,29.93,SW,215,1.0,3.0,96,0.00,,,0.41,weatherlink.com 1.10,2013-07-28 14:34:00,
2013-07-28 10:49:00,72.9,71.0,29.93,SSW,203,1.0,4.0,95,0.00,,,0.41,weatherlink.com 1.10,2013-07-28 14:49:00,
2013-07-28 11:04:00,72.8,71.0,29.94,SSW,209,3.0,6.0,95,0.00,,,0.41,weatherlink.com 1.10,2013-07-28 15:04:00,
2013-07-28 11:19:00,72.9,71.0,29.94,South,188,1.0,5.0,95,0.00,,,0.41,weatherlink.com 1.10,2013-07-28 15:19:00,
2013-07-28 11:34:00,73.2,71.0,29.94,SW,218,5.0,5.0,94,0.00,,,0.41,weatherlink.com 1.10,2013-07-28 15:34:00,
2013-07-28 11:49:00,73.0,72.0,29.94,South,187,4.0,6.0,95,0.00,,,0.41,weatherlink.com 1.10,2013-07-28 15:49:00,
2013-07-28 12:04:00,73.1,72.0,29.95,SSW,212,5.0,6.0,95,0.00,,,0.41,weatherlink.com 1.10,2013-07-28 16:04:00,
2013-07-28 12:19:00,72.8,71.0,29.95,SW,214,6.0,8.0,95,0.00,,,0.41,weatherlink.com 1.10,2013-07-28 16:19:00,
2013-07-28 12:34:00,72.8,72.0,29.94,SW,214,4.0,8.0,96,0.00,,,0.41,weatherlink.com 1.10,2013-07-28 16:34:00,
2013-07-28 12:50:00,74.0,73.0,29.95,NNE,30,0.0,9.0,96,0.00,,,0.41,weatherlink.com 1.10,2013-07-28 16:50:00,
2013-07-28 13:05:00,75.0,73.0,29.95,WSW,243,0.0,6.0,92,0.00,,,0.41,weatherlink.com 1.10,2013-07-28 17:05:00,
2013-07-28 13:20:00,75.3,73.0,29.94,SSW,207,0.0,5.0,91,0.00,,,0.41,weatherlink.com 1.10,2013-07-28 17:20:00,
2013-07-28 13:35:00,75.6,73.0,29.95,SW,233,1.0,5.0,90,0.00,,,0.41,weatherlink.com 1.10,2013-07-28 17:35:00,
2013-07-28 13:50:00,75.8,73.0,29.95,West,269,1.0,5.0,90,0.00,,,0.41,weatherlink.com 1.10,2013-07-28 17:50:00,
2013-07-28 14:05:00,76.1,73.0,29.95,SSW,203,1.0,3.0,89,0.00,,,0.41,weatherlink.com 1.10,2013-07-28 18:05:00,
2013-07-28 14:20:00,76.8,73.0,29.95,SW,231,3.0,6.0,88,0.00,,,0.41,weatherlink.com 1.10,2013-07-28 18:20:00,
2013-07-28 14:35:00,77.0,73.0,29.95,WNW,298,2.0,7.0,88,0.00,,,0.41,weatherlink.com 1.10,2013-07-28 18:35:00,
2013-07-28 14:50:00,76.8,73.0,29.94,ENE,58,2.0,4.0,87,0.00,,,0.41,weatherlink.com 1.10,2013-07-28 18:50:00,
2013-07-28 15:05:00,76.6,73.0,29.94,WNW,290,1.0,4.0,89,0.00,,,0.41,weatherlink.com 1.10,2013-07-28 19:05:00,
2013-07-28 15:20:00,76.8,73.0,29.95,SSW,205,4.0,8.0,88,0.00,,,0.41,weatherlink.com 1.10,2013-07-28 19:20:00,
2013-07-28 15:35:00,76.1,73.0,29.94,WSW,243,2.0,4.0,89,0.00,,,0.41,weatherlink.com 1.10,2013-07-28 19:35:00,
2013-07-28 15:50:00,75.8,72.0,29.95,SSW,209,6.0,8.0,89,0.00,,,0.41,weatherlink.com 1.10,2013-07-28 19:50:00,
2013-07-28 16:05:00,75.6,73.0,29.95,SW,222,2.0,9.0,90,0.00,,,0.41,weatherlink.com 1.10,2013-07-28 20:05:00,
2013-07-28 16:20:00,75.1,72.0,29.96,SSW,210,4.0,8.0,90,0.00,,,0.41,weatherlink.com 1.10,2013-07-28 20:20:00,
2013-07-28 16:35:00,74.8,72.0,29.96,SW,217,9.0,9.0,91,0.00,,,0.41,weatherlink.com 1.10,2013-07-28 20:35:00,
2013-07-28 16:50:00,73.3,72.0,29.97,SW,218,12.0,15.0,94,0.00,,,0.41,weatherlink.com 1.10,2013-07-28 20:50:00,
2013-07-28 17:05:00,72.6,71.0,29.97,SW,220,10.0,14.0,95,0.00,,,0.41,weatherlink.com 1.10,2013-07-28 21:05:00,
2013-07-28 17:20:00,72.2,71.0,29.96,SW,221,10.0,14.0,95,0.00,,,0.41,weatherlink.com 1.10,2013-07-28 21:20:00,
2013-07-28 17:35:00,71.7,71.0,29.95,SW,219,10.0,13.0,96,0.00,,,0.41,weatherlink.com 1.10,2013-07-28 21:35:00,
2013-07-28 17:50:00,71.7,71.0,29.95,SW,226,9.0,12.0,96,0.00,,,0.41,weatherlink.com 1.10,2013-07-28 21:50:00,
2013-07-28 18:05:00,71.8,71.0,29.96,SW,214,6.0,12.0,96,0.00,,,0.41,weatherlink.com 1.10,2013-07-28 22:05:00,
2013-07-28 18:20:00,72.0,71.0,29.96,West,276,4.0,9.0,96,0.00,,,0.41,weatherlink.com 1.10,2013-07-28 22:20:00,
2013-07-28 18:35:00,72.1,71.0,29.96,SSW,211,6.0,9.0,96,0.00,,,0.41,weatherlink.com 1.10,2013-07-28 22:35:00,
2013-07-28 18:50:00,71.9,71.0,29.96,SW,219,8.0,11.0,96,0.00,,,0.41,weatherlink.com 1.10,2013-07-28 22:50:00,
2013-07-28 19:05:00,71.8,71.0,29.96,SW,215,6.0,11.0,97,0.00,,,0.41,weatherlink.com 1.10,2013-07-28 23:05:00,
2013-07-28 19:20:00,71.8,71.0,29.97,SW,225,6.0,11.0,97,0.00,,,0.41,weatherlink.com 1.10,2013-07-28 23:20:00,
2013-07-28 19:35:00,71.6,71.0,29.97,SW,225,5.0,10.0,97,0.00,,,0.41,weatherlink.com 1.10,2013-07-28 23:35:00,
2013-07-28 19:50:00,71.6,71.0,29.97,SW,222,5.0,8.0,97,0.00,,,0.41,weatherlink.com 1.10,2013-07-28 23:50:00,
2013-07-28 20:05:00,71.7,71.0,29.97,SW,223,5.0,10.0,96,0.00,,,0.41,weatherlink.com 1.10,2013-07-29 00:05:00,
2013-07-28 20:20:00,71.7,71.0,29.96,SW,230,2.0,5.0,96,0.00,,,0.41,weatherlink.com 1.10,2013-07-29 00:20:00,
2013-07-28 20:35:00,71.7,71.0,29.97,SW,235,3.0,4.0,97,0.00,,,0.41,weatherlink.com 1.10,2013-07-29 00:35:00,
2013-07-28 20:50:00,72.1,71.0,29.97,SSW,211,6.0,8.0,97,0.00,,,0.41,weatherlink.com 1.10,2013-07-29 00:50:00,
2013-07-28 21:05:00,72.2,71.0,29.98,SW,221,6.0,9.0,97,0.00,,,0.41,weatherlink.com 1.10,2013-07-29 01:05:00,
2013-07-28 21:35:00,72.0,71.0,29.99,South,181,4.0,9.0,97,0.00,,,0.41,weatherlink.com 1.10,2013-07-29 01:35:00,
2013-07-28 22:05:00,71.6,70.0,30.01,WSW,255,2.0,4.0,96,0.00,,,0.41,weatherlink.com 1.10,2013-07-29 02:05:00,
2013-07-28 22:20:00,71.6,70.0,30.01,SSW,212,3.0,7.0,95,0.00,,,0.41,weatherlink.com 1.10,2013-07-29 02:20:00,
2013-07-28 22:35:00,69.3,68.0,30.01,SSW,211,0.0,4.0,96,0.00,,,0.41,weatherlink.com 1.10,2013-07-29 02:35:00,
2013-07-28 22:50:00,68.4,68.0,30.00,SSW,211,3.0,5.0,97,0.00,,,0.41,weatherlink.com 1.10,2013-07-29 02:50:00,
2013-07-28 23:05:00,68.3,68.0,30.00,SW,217,2.0,4.0,98,0.00,,,0.41,weatherlink.com 1.10,2013-07-29 03:05:00,
2013-07-28 23:35:00,68.6,68.0,29.98,West,269,1.0,2.0,99,0.00,,,0.41,weatherlink.com 1.10,2013-07-29 03:35:00,
2013-07-28 23:50:00,69.2,69.0,29.98,SW,218,1.0,2.0,99,0.00,,,0.41,weatherlink.com 1.10,2013-07-29 03:50:00,